When you browse on this site, cookies collect data to enhance your experience and personalize the content and advertising you see.
Visit our Privacy Policy to learn more. By continuing to use the site, you agree to this use of cookies and data.
  • în România
  • Lista ţărilor
  • Pe 7 zile
  • Temperatura apei
  • Hartă satelitară
  • Meteo pe hartă
  • Widget-uri
  • user-avatar
    Intrare

    Meteo pe oră la Chelmsford

    Astăzi, 19 Aprilie, Vineri

    Timp Temperatura Precipitaţii Vânt Presiune Umiditate
    00:00 +11°C° 0 mm 3 m/s 767 mmHg 82%
    01:00 +10°C° 0 mm 3 m/s 767 mmHg 84%
    02:00 +10°C° 0 mm 3 m/s 767 mmHg 86%
    03:00 +10°C° 0 mm 3 m/s 767 mmHg 88%
    04:00 +10°C° 0 mm 3 m/s 767 mmHg 88%
    05:00 +10°C° 0 mm 3 m/s 767 mmHg 87%
    06:00 +10°C° 0 mm 4 m/s 768 mmHg 86%
    07:00 +12°C° 0 mm 4 m/s 768 mmHg 81%
    08:00 +14°C° 0 mm 4 m/s 768 mmHg 76%
    09:00 +15°C° 0 mm 4 m/s 769 mmHg 70%
    10:00 +17°C° 0 mm 4 m/s 769 mmHg 67%
    11:00 +17°C° 0 mm 5 m/s 769 mmHg 64%
    12:00 +19°C° 0 mm 5 m/s 769 mmHg 61%
    13:00 +19°C° 0 mm 4 m/s 769 mmHg 60%
    14:00 +19°C° 0 mm 4 m/s 769 mmHg 60%
    15:00 +19°C° 0 mm 4 m/s 769 mmHg 59%
    16:00 +18°C° 0 mm 4 m/s 769 mmHg 64%
    17:00 +17°C° 0 mm 3 m/s 769 mmHg 70%
    18:00 +16°C° 0 mm 3 m/s 769 mmHg 75%
    19:00 +13°C° 0 mm 3 m/s 769 mmHg 79%
    20:00 +12°C° 0 mm 3 m/s 770 mmHg 82%
    21:00 +10°C° 0 mm 3 m/s 770 mmHg 86%
    22:00 +10°C° 0 mm 3 m/s 770 mmHg 87%
    23:00 +10°C° 0 mm 3 m/s 770 mmHg 88%

    Mâine, 20 Aprilie, Sâmbătă

    Timp Temperatura Precipitaţii Vânt Presiune Umiditate
    00:00 +9°C° 0 mm 3 m/s 770 mmHg 88%
    01:00 +9°C° 0 mm 3 m/s 770 mmHg 89%
    02:00 +9°C° 0 mm 3 m/s 770 mmHg 90%
    03:00 +9°C° 0 mm 3 m/s 770 mmHg 91%
    04:00 +9°C° 0 mm 3 m/s 770 mmHg 91%
    05:00 +9°C° 0 mm 3 m/s 770 mmHg 91%
    06:00 +9°C° 0 mm 3 m/s 770 mmHg 90%
    07:00 +12°C° 0 mm 3 m/s 770 mmHg 85%
    08:00 +14°C° 0 mm 3 m/s 770 mmHg 80%
    09:00 +17°C° 0 mm 4 m/s 770 mmHg 74%
    10:00 +18°C° 0 mm 4 m/s 770 mmHg 70%
    11:00 +19°C° 0 mm 4 m/s 770 mmHg 66%
    12:00 +20°C° 0 mm 4 m/s 769 mmHg 62%
    13:00 +20°C° 0 mm 4 m/s 769 mmHg 61%
    14:00 +20°C° 0 mm 3 m/s 769 mmHg 60%
    15:00 +20°C° 0 mm 3 m/s 768 mmHg 59%
    16:00 +19°C° 0 mm 3 m/s 768 mmHg 64%
    17:00 +18°C° 0 mm 3 m/s 768 mmHg 69%
    18:00 +17°C° 0 mm 3 m/s 768 mmHg 75%
    19:00 +14°C° 0 mm 3 m/s 768 mmHg 78%
    20:00 +12°C° 0 mm 3 m/s 768 mmHg 82%
    21:00 +10°C° 0 mm 3 m/s 768 mmHg 85%
    22:00 +10°C° 0 mm 3 m/s 768 mmHg 86%
    23:00 +9°C° 0 mm 2 m/s 767 mmHg 86%

    Poimâine, 21 Aprilie, Duminică

    Timp Temperatura Precipitaţii Vânt Presiune Umiditate
    00:00 +9°C° 0 mm 2 m/s 767 mmHg 87%
    01:00 +9°C° 0 mm 2 m/s 767 mmHg 87%
    02:00 +9°C° 0 mm 2 m/s 766 mmHg 88%
    03:00 +8°C° 0 mm 2 m/s 766 mmHg 89%
    04:00 +9°C° 0 mm 2 m/s 765 mmHg 89%
    05:00 +9°C° 0 mm 2 m/s 765 mmHg 89%
    06:00 +10°C° 0 mm 2 m/s 764 mmHg 89%
    07:00 +13°C° 0 mm 2 m/s 764 mmHg 83%
    08:00 +15°C° 0 mm 2 m/s 764 mmHg 76%
    09:00 +17°C° 0 mm 3 m/s 764 mmHg 69%
    10:00 +18°C° 0 mm 3 m/s 763 mmHg 65%
    11:00 +19°C° 0 mm 3 m/s 763 mmHg 60%
    12:00 +19°C° 0 mm 4 m/s 762 mmHg 56%
    13:00 +19°C° 0 mm 4 m/s 762 mmHg 57%
    14:00 +19°C° 0 mm 4 m/s 761 mmHg 58%
    15:00 +19°C° 0 mm 3 m/s 760 mmHg 59%
    16:00 +18°C° 0 mm 3 m/s 760 mmHg 65%
    17:00 +17°C° 0 mm 3 m/s 759 mmHg 71%
    18:00 +16°C° 0 mm 2 m/s 759 mmHg 76%
    19:00 +14°C° 0 mm 2 m/s 759 mmHg 80%
    20:00 +13°C° 0 mm 2 m/s 759 mmHg 83%
    21:00 +10°C° 0 mm 2 m/s 759 mmHg 86%
    22:00 +10°C° 0 mm 2 m/s 758 mmHg 86%
    23:00 +10°C° 0 mm 2 m/s 758 mmHg 85%

    22 Aprilie, Luni

    Timp Temperatura Precipitaţii Vânt Presiune Umiditate
    00:00 +10°C° 0 mm 2 m/s 757 mmHg 85%
    01:00 +10°C° 0 mm 2 m/s 757 mmHg 83%
    02:00 +10°C° 0 mm 2 m/s 756 mmHg 82%
    03:00 +10°C° 0 mm 2 m/s 755 mmHg 81%
    04:00 +10°C° 0 mm 2 m/s 755 mmHg 80%
    05:00 +10°C° 0 mm 2 m/s 755 mmHg 80%
    06:00 +12°C° 0 mm 2 m/s 755 mmHg 80%
    07:00 +14°C° 0 mm 2 m/s 754 mmHg 74%
    08:00 +14°C° 0 mm 3 m/s 754 mmHg 68%
    09:00 +17°C° 0 mm 3 m/s 754 mmHg 62%
    10:00 +18°C° 0 mm 4 m/s 754 mmHg 60%
    11:00 +19°C° 0 mm 4 m/s 753 mmHg 58%
    12:00 +19°C° 0 mm 5 m/s 753 mmHg 56%
    13:00 +19°C° 0 mm 5 m/s 752 mmHg 58%
    14:00 +19°C° 0 mm 5 m/s 752 mmHg 59%
    15:00 +19°C° 0 mm 5 m/s 751 mmHg 61%
    16:00 +18°C° 0 mm 4 m/s 751 mmHg 65%
    17:00 +17°C° 0 mm 4 m/s 751 mmHg 69%
    18:00 +16°C° 0 mm 3 m/s 750 mmHg 74%
    19:00 +13°C° 0 mm 3 m/s 750 mmHg 76%
    20:00 +12°C° 0 mm 3 m/s 750 mmHg 78%
    21:00 +11°C° 0 mm 3 m/s 750 mmHg 80%
    22:00 +11°C° 0 mm 3 m/s 750 mmHg 80%
    23:00 +11°C° 0 mm 3 m/s 749 mmHg 80%

    23 Aprilie, Marţi

    Timp Temperatura Precipitaţii Vânt Presiune Umiditate
    00:00 +11°C° 0 mm 3 m/s 749 mmHg 80%
    01:00 +11°C° 0 mm 3 m/s 749 mmHg 81%
    02:00 +11°C° 0 mm 3 m/s 748 mmHg 82%
    03:00 +11°C° 0 mm 3 m/s 748 mmHg 83%
    04:00 +11°C° 0 mm 3 m/s 748 mmHg 83%
    05:00 +11°C° 0 mm 4 m/s 748 mmHg 84%
    06:00 +11°C° 0 mm 4 m/s 748 mmHg 85%
    07:00 +13°C° 0 mm 4 m/s 748 mmHg 81%
    08:00 +14°C° 0 mm 5 m/s 748 mmHg 78%
    09:00 +15°C° 0 mm 5 m/s 748 mmHg 75%
    10:00 +16°C° 0 mm 5 m/s 748 mmHg 73%
    11:00 +16°C° 0 mm 5 m/s 748 mmHg 71%
    12:00 +17°C° 0 mm 5 m/s 748 mmHg 68%
    13:00 +17°C° 0 mm 5 m/s 748 mmHg 69%
    14:00 +17°C° 0 mm 5 m/s 748 mmHg 69%
    15:00 +17°C° 0 mm 5 m/s 747 mmHg 69%
    16:00 +16°C° 0 mm 5 m/s 747 mmHg 72%
    17:00 +15°C° 0 mm 4 m/s 748 mmHg 75%
    18:00 +15°C° 0 mm 4 m/s 748 mmHg 78%
    19:00 +13°C° 0 mm 4 m/s 748 mmHg 80%
    20:00 +12°C° 0 mm 3 m/s 748 mmHg 82%
    21:00 +11°C° 0 mm 3 m/s 749 mmHg 84%
    22:00 +11°C° 0 mm 3 m/s 749 mmHg 84%
    23:00 +11°C° 0 mm 3 m/s 749 mmHg 83%

    24 Aprilie, Miercuri

    Timp Temperatura Precipitaţii Vânt Presiune Umiditate
    00:00 +12°C° 0 mm 2 m/s 749 mmHg 83%
    01:00 +12°C° 0 mm 2 m/s 749 mmHg 85%
    02:00 +12°C° 0 mm 2 m/s 749 mmHg 86%
    03:00 +11°C° 0 mm 3 m/s 749 mmHg 88%
    04:00 +13°C° 0 mm 2 m/s 749 mmHg 88%
    05:00 +13°C° 0 mm 2 m/s 749 mmHg 88%
    06:00 +13°C° 0 mm 2 m/s 749 mmHg 89%
    07:00 +15°C° 0.1 mm 2 m/s 749 mmHg 86%
    08:00 +16°C° 0.1 mm 3 m/s 750 mmHg 83%
    09:00 +17°C° 0.1 mm 3 m/s 750 mmHg 80%
    10:00 +18°C° 0 mm 3 m/s 750 mmHg 77%
    11:00 +19°C° 0 mm 4 m/s 751 mmHg 74%
    12:00 +20°C° 0 mm 4 m/s 751 mmHg 71%
    13:00 +20°C° 0.1 mm 4 m/s 751 mmHg 69%
    14:00 +20°C° 0.1 mm 4 m/s 751 mmHg 68%
    15:00 +20°C° 0.1 mm 4 m/s 750 mmHg 66%
    16:00 +19°C° 0 mm 3 m/s 751 mmHg 71%
    17:00 +18°C° 0 mm 3 m/s 751 mmHg 75%
    18:00 +17°C° 0 mm 3 m/s 751 mmHg 80%
    19:00 +16°C° 0.1 mm 2 m/s 751 mmHg 82%
    20:00 +15°C° 0.1 mm 2 m/s 751 mmHg 85%
    21:00 +14°C° 0.1 mm 2 m/s 752 mmHg 88%
    22:00 +14°C° 0.8 mm 1 m/s 752 mmHg 90%
    23:00 +14°C° 0.8 mm 1 m/s 752 mmHg 92%
    Arată mai mult